{"data":{"norad_id":40895,"intl_designator":"2015-048A","name":"EXPRESS-AM8","alt_names":[],"object_type":"PAYLOAD","status":"ACTIVE","operator":null,"country":"CIS","launch_date":"2015-09-14","launch_site_code":"TYMSC","launch_vehicle":null,"mission":null,"orbit_class":"UNKNOWN","rcs_meters":44.8226,"size_class":null,"mass_kg":null,"dimensions":null,"purposes":["comms"],"wikipedia_slug":null,"has_3d_model":false,"image_url":null,"decayed_at":null,"tle_current":{"epoch":"2026-05-25T01:57:55.224288Z","epoch_age_seconds":61832,"freshness":"FRESH","line1":"1 40895U 15048A   26145.08188917 -.00000114  00000+0  00000+0 0  9999","line2":"2 40895   0.0168 288.4386 0000385  18.4396 311.2750  1.00271485 39110","mean_motion":1.00271485,"eccentricity":3.85e-5,"inclination_deg":0.0168,"raan_deg":288.4386,"arg_perigee_deg":18.4396,"mean_anomaly_deg":311.275,"bstar":0,"rev_number":3911,"period_min":1436.1012006554,"perigee_km":35785.055716872,"apogee_km":35788.302407709,"semimajor_km":42164.816062291,"source":"CELESTRAK","updated_at":"2026-05-25T13:38:13.993038Z"}}}